Time,TemperatureF,DewpointF,PressureIn,WindDirection,WindDirectionDegrees,WindSpeedMPH,WindSpeedGustMPH,Humidity,HourlyPrecipIn,Conditions,Clouds,dailyrainin,SolarRadiationWatts/m^2,SoftwareType,DateUTC
2013-05-21 00:12:00,72.4,71.0,30.00,ESE,115,0.0,-999.0,94,-99.99,,,0.00,0,weatherlink.com 1.10,2013-05-21 04:12:00,
2013-05-21 00:27:00,72.6,71.0,30.00,ESE,108,5.0,-999.0,94,-99.99,,,0.00,0,weatherlink.com 1.10,2013-05-21 04:27:00,
2013-05-21 00:42:00,72.5,71.0,30.00,East,86,4.0,-999.0,94,-99.99,,,0.00,0,weatherlink.com 1.10,2013-05-21 04:42:00,
2013-05-21 00:57:00,72.4,71.0,30.00,East,90,2.0,-999.0,94,-99.99,,,0.00,0,weatherlink.com 1.10,2013-05-21 04:57:00,
2013-05-21 01:12:00,72.4,71.0,30.00,SE,132,6.0,-999.0,94,-99.99,,,0.00,0,weatherlink.com 1.10,2013-05-21 05:12:00,
2013-05-21 01:27:00,72.6,71.0,29.99,ESE,103,0.0,-999.0,94,-99.99,,,0.00,0,weatherlink.com 1.10,2013-05-21 05:27:00,
2013-05-21 01:42:00,72.6,71.0,29.98,ESE,103,0.0,-999.0,94,-99.99,,,0.00,0,weatherlink.com 1.10,2013-05-21 05:42:00,
2013-05-21 01:57:00,72.3,71.0,29.98,East,90,0.0,-999.0,94,-99.99,,,0.00,0,weatherlink.com 1.10,2013-05-21 05:57:00,
2013-05-21 02:12:00,72.1,70.0,29.97,ESE,108,0.0,-999.0,94,-99.99,,,0.00,0,weatherlink.com 1.10,2013-05-21 06:12:00,
2013-05-21 02:27:00,71.8,70.0,29.96,ESE,109,0.0,-999.0,94,-99.99,,,0.00,0,weatherlink.com 1.10,2013-05-21 06:27:00,
2013-05-21 02:42:00,71.5,70.0,29.95,ESE,121,2.0,-999.0,95,-99.99,,,0.00,0,weatherlink.com 1.10,2013-05-21 06:42:00,
2013-05-21 02:57:00,71.5,70.0,29.96,East,95,0.0,-999.0,95,-99.99,,,0.00,0,weatherlink.com 1.10,2013-05-21 06:57:00,
2013-05-21 03:12:00,71.4,70.0,29.96,East,94,0.0,-999.0,95,-99.99,,,0.00,0,weatherlink.com 1.10,2013-05-21 07:12:00,
2013-05-21 03:27:00,71.3,70.0,29.95,East,87,4.0,-999.0,95,-99.99,,,0.00,0,weatherlink.com 1.10,2013-05-21 07:27:00,
2013-05-21 03:42:00,71.0,70.0,29.95,ESE,118,0.0,-999.0,95,-99.99,,,0.00,0,weatherlink.com 1.10,2013-05-21 07:42:00,
2013-05-21 03:57:00,70.6,69.0,29.95,ESE,103,0.0,-999.0,94,-99.99,,,0.00,0,weatherlink.com 1.10,2013-05-21 07:57:00,
2013-05-21 04:12:00,70.5,69.0,29.96,ESE,109,0.0,-999.0,94,-99.99,,,0.00,0,weatherlink.com 1.10,2013-05-21 08:12:00,
2013-05-21 04:27:00,70.4,69.0,29.96,East,88,0.0,-999.0,94,-99.99,,,0.00,0,weatherlink.com 1.10,2013-05-21 08:27:00,
2013-05-21 04:42:00,70.3,69.0,29.96,ESE,113,0.0,-999.0,94,-99.99,,,0.00,0,weatherlink.com 1.10,2013-05-21 08:42:00,
2013-05-21 04:57:00,70.4,69.0,29.96,East,82,0.0,-999.0,95,-99.99,,,0.00,0,weatherlink.com 1.10,2013-05-21 08:57:00,
2013-05-21 05:12:00,70.4,69.0,29.96,East,97,0.0,-999.0,95,-99.99,,,0.00,0,weatherlink.com 1.10,2013-05-21 09:12:00,
2013-05-21 05:27:00,70.2,69.0,29.96,East,88,0.0,-999.0,95,-99.99,,,0.00,0,weatherlink.com 1.10,2013-05-21 09:27:00,
2013-05-21 05:42:00,70.0,69.0,29.96,ENE,74,0.0,-999.0,95,-99.99,,,0.00,0,weatherlink.com 1.10,2013-05-21 09:42:00,
2013-05-21 05:57:00,69.8,68.0,29.96,East,90,5.0,-999.0,95,-99.99,,,0.00,0,weatherlink.com 1.10,2013-05-21 09:57:00,
2013-05-21 06:12:00,69.6,68.0,29.97,East,101,1.0,-999.0,95,-99.99,,,0.00,0,weatherlink.com 1.10,2013-05-21 10:12:00,
2013-05-21 06:27:00,69.5,68.0,29.97,East,84,2.0,-999.0,95,-99.99,,,0.00,0,weatherlink.com 1.10,2013-05-21 10:27:00,
2013-05-21 06:42:00,69.6,68.0,29.98,ESE,103,0.0,-999.0,95,-99.99,,,0.00,5,weatherlink.com 1.10,2013-05-21 10:42:00,
2013-05-21 06:57:00,69.6,69.0,29.98,ENE,77,0.0,-999.0,96,-99.99,,,0.00,18,weatherlink.com 1.10,2013-05-21 10:57:00,
2013-05-21 07:12:00,69.9,69.0,29.99,ESE,121,0.0,-999.0,95,-99.99,,,0.00,46,weatherlink.com 1.10,2013-05-21 11:12:00,
2013-05-21 07:27:00,70.7,69.0,29.99,East,92,0.0,-999.0,95,-99.99,,,0.00,84,weatherlink.com 1.10,2013-05-21 11:27:00,
2013-05-21 07:42:00,71.7,70.0,29.99,East,95,1.0,-999.0,94,-99.99,,,0.00,132,weatherlink.com 1.10,2013-05-21 11:42:00,
2013-05-21 07:57:00,72.9,71.0,29.99,ESE,113,0.0,-999.0,92,-99.99,,,0.00,185,weatherlink.com 1.10,2013-05-21 11:57:00,
2013-05-21 08:12:00,74.2,71.0,29.99,East,99,1.0,-999.0,90,-99.99,,,0.00,239,weatherlink.com 1.10,2013-05-21 12:12:00,
2013-05-21 08:27:00,75.9,72.0,29.99,ESE,123,0.0,-999.0,88,-99.99,,,0.00,295,weatherlink.com 1.10,2013-05-21 12:27:00,
2013-05-21 08:42:00,77.3,73.0,30.00,ESE,113,5.0,-999.0,85,-99.99,,,0.00,346,weatherlink.com 1.10,2013-05-21 12:42:00,
2013-05-21 08:57:00,78.8,73.0,30.00,ESE,119,0.0,-999.0,83,-99.99,,,0.00,394,weatherlink.com 1.10,2013-05-21 12:57:00,
2013-05-21 09:12:00,79.6,74.0,30.00,SE,145,0.0,-999.0,82,-99.99,,,0.00,448,weatherlink.com 1.10,2013-05-21 13:12:00,
2013-05-21 09:27:00,81.4,74.0,30.00,ESE,102,5.0,-999.0,79,-99.99,,,0.00,501,weatherlink.com 1.10,2013-05-21 13:27:00,
2013-05-21 09:42:00,82.3,75.0,30.00,SE,132,0.0,-999.0,78,-99.99,,,0.00,547,weatherlink.com 1.10,2013-05-21 13:42:00,
2013-05-21 09:57:00,84.0,75.0,30.00,ESE,110,1.0,-999.0,75,-99.99,,,0.00,594,weatherlink.com 1.10,2013-05-21 13:57:00,
2013-05-21 10:12:00,85.0,75.0,30.00,ESE,107,0.0,-999.0,73,-99.99,,,0.00,640,weatherlink.com 1.10,2013-05-21 14:12:00,
2013-05-21 10:27:00,85.6,75.0,30.00,East,99,2.0,-999.0,71,-99.99,,,0.00,682,weatherlink.com 1.10,2013-05-21 14:27:00,
2013-05-21 10:42:00,86.6,74.0,30.00,SE,126,0.0,-999.0,67,-99.99,,,0.00,724,weatherlink.com 1.10,2013-05-21 14:42:00,
2013-05-21 10:57:00,87.5,73.0,30.00,South,171,0.0,-999.0,63,-99.99,,,0.00,761,weatherlink.com 1.10,2013-05-21 14:57:00,
2013-05-21 11:12:00,87.6,74.0,30.01,ESE,112,1.0,-999.0,64,-99.99,,,0.00,796,weatherlink.com 1.10,2013-05-21 15:12:00,
2013-05-21 11:27:00,88.1,74.0,30.01,SE,143,4.0,-999.0,63,-99.99,,,0.00,849,weatherlink.com 1.10,2013-05-21 15:27:00,
2013-05-21 11:42:00,88.8,74.0,30.00,SSE,149,0.0,-999.0,61,-99.99,,,0.00,863,weatherlink.com 1.10,2013-05-21 15:42:00,
2013-05-21 11:57:00,89.4,72.0,30.00,ESE,116,0.0,-999.0,57,-99.99,,,0.00,886,weatherlink.com 1.10,2013-05-21 15:57:00,
2013-05-21 12:12:00,89.0,73.0,30.00,SE,131,1.0,-999.0,59,-99.99,,,0.00,909,weatherlink.com 1.10,2013-05-21 16:12:00,
2013-05-21 12:27:00,89.6,73.0,30.00,SE,132,0.0,-999.0,58,-99.99,,,0.00,926,weatherlink.com 1.10,2013-05-21 16:27:00,
2013-05-21 12:42:00,90.3,74.0,29.99,SSE,165,0.0,-999.0,59,-99.99,,,0.00,939,weatherlink.com 1.10,2013-05-21 16:42:00,
2013-05-21 12:57:00,90.0,73.0,29.98,WSW,238,1.0,-999.0,57,-99.99,,,0.00,947,weatherlink.com 1.10,2013-05-21 16:57:00,
2013-05-21 13:12:00,91.0,73.0,29.98,SSE,148,0.0,-999.0,56,-99.99,,,0.00,954,weatherlink.com 1.10,2013-05-21 17:12:00,
2013-05-21 13:27:00,91.1,71.0,29.97,SW,214,0.0,-999.0,51,-99.99,,,0.00,960,weatherlink.com 1.10,2013-05-21 17:27:00,
2013-05-21 13:42:00,91.6,73.0,29.96,SSW,202,0.0,-999.0,55,-99.99,,,0.00,956,weatherlink.com 1.10,2013-05-21 17:42:00,
2013-05-21 13:57:00,91.7,75.0,29.96,SW,215,1.0,-999.0,59,-99.99,,,0.00,946,weatherlink.com 1.10,2013-05-21 17:57:00,
2013-05-21 14:12:00,91.0,75.0,29.95,SW,234,0.0,-999.0,60,-99.99,,,0.00,940,weatherlink.com 1.10,2013-05-21 18:12:00,
2013-05-21 14:27:00,90.8,73.0,29.94,SSW,212,0.0,-999.0,57,-99.99,,,0.00,925,weatherlink.com 1.10,2013-05-21 18:27:00,
2013-05-21 14:42:00,91.2,75.0,29.94,WSW,239,3.0,-999.0,59,-99.99,,,0.00,909,weatherlink.com 1.10,2013-05-21 18:42:00,
2013-05-21 14:57:00,89.8,75.0,29.93,SW,221,2.0,-999.0,61,-99.99,,,0.00,893,weatherlink.com 1.10,2013-05-21 18:57:00,
2013-05-21 15:12:00,89.0,74.0,29.93,WSW,251,2.0,-999.0,62,-99.99,,,0.00,872,weatherlink.com 1.10,2013-05-21 19:12:00,
2013-05-21 15:27:00,88.2,75.0,29.92,SW,217,1.0,-999.0,64,-99.99,,,0.00,838,weatherlink.com 1.10,2013-05-21 19:27:00,
2013-05-21 15:42:00,88.7,74.0,29.91,WSW,239,1.0,-999.0,62,-99.99,,,0.00,807,weatherlink.com 1.10,2013-05-21 19:42:00,
2013-05-21 15:57:00,88.2,74.0,29.92,SW,234,2.0,-999.0,62,-99.99,,,0.00,868,weatherlink.com 1.10,2013-05-21 19:57:00,
2013-05-21 16:27:00,89.2,75.0,29.92,SSW,196,0.0,-999.0,63,-99.99,,,0.00,343,weatherlink.com 1.10,2013-05-21 20:27:00,
2013-05-21 16:42:00,86.5,73.0,29.92,ESE,111,4.0,-999.0,64,-99.99,,,0.00,243,weatherlink.com 1.10,2013-05-21 20:42:00,
2013-05-21 16:57:00,86.8,74.0,29.92,SE,145,0.0,-999.0,65,-99.99,,,0.00,645,weatherlink.com 1.10,2013-05-21 20:57:00,
2013-05-21 17:12:00,87.1,74.0,29.92,ESE,121,2.0,-999.0,65,-99.99,,,0.00,188,weatherlink.com 1.10,2013-05-21 21:12:00,
2013-05-21 17:27:00,85.1,73.0,29.91,ESE,118,2.0,-999.0,67,-99.99,,,0.00,88,weatherlink.com 1.10,2013-05-21 21:27:00,
2013-05-21 17:42:00,84.5,74.0,29.91,SE,128,0.0,-999.0,70,-99.99,,,0.00,134,weatherlink.com 1.10,2013-05-21 21:42:00,
2013-05-21 17:57:00,86.1,74.0,29.92,SW,226,0.0,-999.0,68,-99.99,,,0.00,383,weatherlink.com 1.10,2013-05-21 21:57:00,
2013-05-21 18:12:00,86.7,74.0,29.92,WNW,287,0.0,-999.0,65,-99.99,,,0.00,128,weatherlink.com 1.10,2013-05-21 22:12:00,
2013-05-21 18:27:00,86.2,73.0,29.92,WNW,300,0.0,-999.0,65,-99.99,,,0.00,160,weatherlink.com 1.10,2013-05-21 22:27:00,
2013-05-21 18:42:00,86.6,74.0,29.93,WSW,258,0.0,-999.0,67,-99.99,,,0.00,290,weatherlink.com 1.10,2013-05-21 22:42:00,
2013-05-21 18:57:00,87.1,74.0,29.93,WSW,238,0.0,-999.0,66,-99.99,,,0.00,172,weatherlink.com 1.10,2013-05-21 22:57:00,
2013-05-21 19:12:00,86.0,74.0,29.93,WNW,282,0.0,-999.0,68,-99.99,,,0.00,104,weatherlink.com 1.10,2013-05-21 23:12:00,
2013-05-21 19:27:00,84.4,74.0,29.93,NW,320,0.0,-999.0,70,-99.99,,,0.00,98,weatherlink.com 1.10,2013-05-21 23:27:00,
2013-05-21 19:42:00,82.9,74.0,29.95,SSE,163,4.0,-999.0,75,-99.99,,,0.01,26,weatherlink.com 1.10,2013-05-21 23:42:00,
2013-05-21 19:57:00,74.6,71.0,29.96,East,92,11.0,-999.0,87,-99.99,,,0.08,32,weatherlink.com 1.10,2013-05-21 23:57:00,
2013-05-21 20:12:00,71.1,68.0,29.96,East,85,4.0,-999.0,90,-99.99,,,0.09,14,weatherlink.com 1.10,2013-05-22 00:12:00,
2013-05-21 20:27:00,71.2,69.0,29.96,ESE,114,1.0,-999.0,93,-99.99,,,0.09,0,weatherlink.com 1.10,2013-05-22 00:27:00,
2013-05-21 20:42:00,71.6,70.0,29.95,ESE,115,6.0,-999.0,94,-99.99,,,0.09,0,weatherlink.com 1.10,2013-05-22 00:42:00,
2013-05-21 20:57:00,71.3,70.0,29.95,East,82,0.0,-999.0,94,-99.99,,,0.09,0,weatherlink.com 1.10,2013-05-22 00:57:00,
2013-05-21 21:12:00,70.6,69.0,29.95,ENE,65,0.0,-999.0,93,-99.99,,,0.09,0,weatherlink.com 1.10,2013-05-22 01:12:00,
2013-05-21 21:27:00,70.6,69.0,29.96,East,88,4.0,-999.0,93,-99.99,,,0.09,0,weatherlink.com 1.10,2013-05-22 01:27:00,
2013-05-21 21:42:00,70.6,69.0,29.96,East,93,1.0,-999.0,93,-99.99,,,0.09,0,weatherlink.com 1.10,2013-05-22 01:42:00,
2013-05-21 21:57:00,71.0,69.0,29.96,NE,52,0.0,-999.0,94,-99.99,,,0.09,0,weatherlink.com 1.10,2013-05-22 01:57:00,
2013-05-21 22:12:00,71.3,70.0,29.96,NE,42,0.0,-999.0,94,-99.99,,,0.09,0,weatherlink.com 1.10,2013-05-22 02:12:00,
2013-05-21 22:27:00,71.5,70.0,29.96,East,98,1.0,-999.0,94,-99.99,,,0.09,0,weatherlink.com 1.10,2013-05-22 02:27:00,
2013-05-21 22:42:00,71.2,69.0,29.96,ESE,104,0.0,-999.0,94,-99.99,,,0.09,0,weatherlink.com 1.10,2013-05-22 02:42:00,
2013-05-21 22:57:00,71.1,69.0,29.96,East,101,0.0,-999.0,94,-99.99,,,0.09,0,weatherlink.com 1.10,2013-05-22 02:57:00,
2013-05-21 23:12:00,71.0,69.0,29.95,ESE,103,0.0,-999.0,94,-99.99,,,0.09,0,weatherlink.com 1.10,2013-05-22 03:12:00,
2013-05-21 23:27:00,71.1,70.0,29.95,ESE,107,2.0,-999.0,95,-99.99,,,0.09,0,weatherlink.com 1.10,2013-05-22 03:27:00,
2013-05-21 23:42:00,71.1,70.0,29.95,ENE,71,1.0,-999.0,95,-99.99,,,0.09,0,weatherlink.com 1.10,2013-05-22 03:42:00,
2013-05-21 23:57:00,71.2,70.0,29.94,ENE,73,0.0,-999.0,95,-99.99,,,0.09,0,weatherlink.com 1.10,2013-05-22 03:57:00,